Location: Carabito
(9.8355°N, 67.9249°W)
Time: 01:56:53
(UTC+00:00)

Cosmos 2219 Rocket - Pass Details

Date: 23 May 2024
Orbit: 827 x 846 km, 71.0° (Epoch: 12 June)

Event Time Altitude Azimuth Distance (km) Brightness Sun altitude
Rises 08:48:00 0° 340° (NNW) 3,389 5.4 -19.3°
Reaches altitude 10° 08:50:27 10° 338° (NNW) 2,457 4.7 -18.8°
Maximum altitude 08:56:04 72° 255° (WSW) 888 2.1 -17.5°
Drops below altitude 10° 09:01:42 10° 171° (S) 2,462 4.5 -16.3°
Sets 09:04:09 0° 169° (S) 3,396 5.2 -15.7°
